Regional Weather Roundup
Issued by NWS

Home | Current Version | Previous Version | Graphics & Text | Print | Product List | Glossary Off
Versions: 1 2 3 4 5 6 7 8 9 10 11 12 13 14 15 16 17 18 19 20 21 22 23 24 25 26 27 28 29 30 31 32 33 34 35 36 37 38 39 40 41 42 43 44 45 46 47 48 49 50

000
ASUS43 KLSX 271507
RWRMO

WEATHER SUMMARY FOR MISSOURI
NATIONAL WEATHER SERVICE SPRINGFIELD MO
1000 AM CDT MON APR 27 2015

NOTE: "FAIR" INDICATES FEW OR NO CLOUDS BELOW 12,000 FEET WITH NO
       SIGNIFICANT WEATHER AND/OR OBSTRUCTIONS TO VISIBILITY.
       CURRENT SKY AND/OR WEATHER CONDITIONS ARE NOT AVAILABLE FOR
       CHILLICOTHE AND FARMINGTON.

MOZ001>031-035>038-043-044-053-054-271600-
...NORTHERN AND WESTERN MISSOURI...

CITY           SKY/WX    TMP DP  RH WIND       PRES   REMARKS
KANSAS CTY INT PTSUNNY   53  40  61 NE6       30.18R
KANSAS C DTWN  PTSUNNY   57  40  52 NE6       30.17R
LEE`S SUMMIT   PTSUNNY   55  38  52 SE7       30.17R
ST JOSEPH      CLOUDY    53  39  59 CALM      30.20R
CHILLICOTHE      N/A     57  38  48 N6        30.19R
KIRKSVILLE     MOSUNNY   58  39  49 N10       30.17R

$$
MOZ066>068-077>081-088>096-101>105-271600-
...SOUTHWEST MISSOURI...

CITY           SKY/WX    TMP DP  RH WIND       PRES   REMARKS
SPRINGFIELD    PTSUNNY   54  32  43 E17G24    30.09F
JOPLIN         MOSUNNY   56  35  45 E18G29    30.05F

$$
MOZ032>034-039>042-045>050-055>058-069>072-271600-
...CENTRAL MISSOURI...

CITY           SKY/WX    TMP DP  RH WIND       PRES   REMARKS
COLUMBIA       CLOUDY    53  35  50 CALM      30.17R
JEFFERSON CITY CLOUDY    54  36  50 VRB6      30.16R
ROLLA          CLOUDY    51  34  52 E8        30.13R
SEDALIA        CLOUDY    52  40  63 CALM      30.18R
WHITEMAN AFB   PTSUNNY   53  40  61 NE5       30.16R
WARRENSBURG    PTSUNNY   52  37  58 NE3       30.18R
OSAGE BEACH    CLOUDY    52  36  54 NE7       30.15S

$$
MOZ051-052-059>065-271600-
...EAST CENTRAL MISSOURI...

CITY           SKY/WX    TMP DP  RH WIND       PRES   REMARKS
ST LOUIS INTL  CLOUDY    55  32  41 VRB7      30.15R
SPIRIT OF STL  CLOUDY    52  33  48 SW3       30.16R
ST CHARLES     PTSUNNY   54  33  45 NE5       30.15R

$$
MOZ072>076-082>087-097>100-106>115-271600-
...SOUTH CENTRAL AND SOUTHEAST MISSOURI...

CITY           SKY/WX    TMP DP  RH WIND       PRES   REMARKS
CAPE GIRARDEAU CLOUDY    54  33  45 NE13      30.11S
FARMINGTON     CLOUDY    52  34  50 NE5       30.17S
POPLAR BLUFF   CLOUDY    53  34  48 N10       30.08S
WEST PLAINS    CLOUDY    51  30  44 NE12G20   30.10S

$$



USA.gov is the U.S. government's official web portal to all federal, state and local government web resources and services.